Location: Balmoral
(33.0667°S, 151.5833°E)
Time: 03:06:49
(UTC+00:00)

Lacrosse 5 rocket - Pass Details

Date: 18 September 2020
Orbit: 460 x 635 km, 57.0° (Epoch: 23 October)

Event Time Altitude Azimuth Distance (km) Brightness Sun altitude
Exits shadow 17:16:17 17° 66° (ENE) 1,486 3.9 -31.9°
Drops below altitude 10° 17:18:39 10° 100° (E) 1,840 4.8 -31.4°
Sets 17:21:27 0° 121° (ESE) 2,702 6.0 -30.9°
